This is the latest recevied weather packets stored in our database for station/object IZ5MMH-14. If no packets are shown the sender has not sent any weather packets the latest 10 day(s).
| Time | Temp. | Humidity | Pressure | Rain* | Wind** | Luminosity | Snow |
|---|---|---|---|---|---|---|---|
| 1777894200 | 23.33° C | 75% | 1018.4 hPa | - | - | - | - |
| 1777893600 | 23.33° C | 77% | 1018.6 hPa | - | - | - | - |
| 1777892999 | 23.33° C | 79% | 1018.8 hPa | - | - | - | - |
| 1777892400 | 22.78° C | 79% | 1018.7 hPa | - | - | - | - |
| 1777891800 | 22.78° C | 81% | 1018.8 hPa | - | - | - | - |
| 1777890600 | 22.22° C | 85% | 1019.1 hPa | - | - | - | - |
| 1777890000 | 22.22° C | 85% | 1018.9 hPa | - | - | - | - |
| 1777889400 | 22.22° C | 83% | 1018.9 hPa | - | - | - | - |
| 1777888800 | 22.22° C | 83% | 1019.1 hPa | - | - | - | - |
| 1777887600 | 22.22° C | 85% | 1019 hPa | - | - | - | - |
| 1777887000 | 21.67° C | 87% | 1019.2 hPa | - | - | - | - |
| 1777886399 | 21.67° C | 85% | 1019.3 hPa | - | - | - | - |
| 1777885800 | 21.67° C | 86% | 1019.2 hPa | - | - | - | - |
| 1777885199 | 21.67° C | 88% | 1019.1 hPa | - | - | - | - |
| 1777883999 | 21.67° C | 90% | 1019.2 hPa | - | - | - | - |
| 1777883400 | 21.11° C | 90% | 1019.2 hPa | - | - | - | - |
| 1777882800 | 21.11° C | 91% | 1019.2 hPa | - | - | - | - |
| 1777882199 | 21.11° C | 90% | 1019.2 hPa | - | - | - | - |
| 1777881600 | 20.56° C | 91% | 1019.1 hPa | - | - | - | - |
| 1777880399 | 20.56° C | 92% | 1019.1 hPa | - | - | - | - |
| 1777879799 | 20° C | 93% | 1019.1 hPa | - | - | - | - |
| 1777879199 | 20° C | 96% | 1019 hPa | - | - | - | - |
| 1777878599 | 19.44° C | 95% | 1019 hPa | - | - | - | - |
| 1777877999 | 19.44° C | 93% | 1018.9 hPa | - | - | - | - |
| 1777877399 | 19.44° C | 94% | 1018.9 hPa | - | - | - | - |
* Rain since midnight (hover to see other rain measurements)
** Current wind speed in m/s (hover to see current wind gust speed)